Content
SEND FEEDBACK

Daily
Averages
Monthly
Summary
United States of America

BECKS, UTAH


Home > North America > United States > Utah
Elevation: 4453 feet     Latitude: 40 46N     Longitude: 111 53W

WEATHER
 
SELECT A DAY
Number of Records: 355,070;   Date Range: 1/1/95 - 7/7/14
 
SHARE

PRINT THIS DATA

[ ← Previous Day ]
WEATHER ALMANAC - FEBRUARY 5, 2013
[ Next Day → ]
[ °C ]   °F
Weather ElementAverageHighLow
Temperature24.1 °F32 °F (3:53 pm)18 °F (5:32 am)
Dewpoint21.5 °F26.1 °F (1:40 pm)15.1 °F (5:32 am)
Humidity89.8 %96 % (9:31 pm)79 % (3:53 pm)
Barometer30.10 in30.27 in (12:53 am)29.94 in (10:07 pm)
Wind Speed6.6 mph16.1 mph (5:53 am)
Weather ElementAverage
Visibility1.9 mi
Wind DirectionSW (224.7 °)

Weather ElementTotal
Precipitation---
Heating Degree Days40 (Base 65)
Averaged from 45 records on February 5, 2013
WEATHER CONDITIONS BREAKOUT
WIND DIRECTION BREAKOUT
WEATHER BY HOUR - FEBRUARY 5, 2013
[ °C ]   °F
Local TimeTemperatureDewpointHumidityBarometerVisibilityWind DirectionWind SpeedGust SpeedPrecipitationEventsConditions
12:53 AM19.9 °F18.0 °F92 %30.27 in0.1 miNorth (360°)12.7 mphFogLight Freezing Fog
1:53 AM21.0 °F19.0 °F92 %30.27 in0.2 miNorth (360°)6.9 mphFogLight Freezing Fog
2:53 AM21.9 °F19.9 °F92 %30.23 in0.2 miSE (140°)5.8 mphFogLight Freezing Fog
3:24 AM21.9 °F19.0 °F89 %30.13 in2.0 miSSE (150°)10.4 mphMostly Cloudy
3:53 AM21.0 °F19.0 °F92 %30.22 in1.8 miENE (60°)5.8 mphMostly Cloudy
4:09 AM21.0 °F19.0 °F92 %30.14 in1.0 miCalmOvercast
4:38 AM19.9 °F18.0 °F92 %30.12 in2.5 miSE (140°)5.8 mphScattered Clouds
4:53 AM21.0 °F19.0 °F92 %30.19 in2.5 miSouth (170°)4.6 mphPartly Cloudy
5:28 AM19.0 °F16.0 °F88 %30.11 in0.5 miNorth (360°)10.4 mphFogLight Freezing Fog
5:32 AM18.0 °F15.1 °F88 %30.11 in0.2 miNorth (360°)11.5 mphFogLight Freezing Fog
5:38 AM18.0 °F16.0 °F92 %30.11 in0.2 miNorth (360°)11.5 mphFogLight Freezing Fog
5:53 AM19.9 °F18.0 °F92 %30.22 in0.2 miNorth (350°)16.1 mphFogLight Freezing Fog
6:53 AM19.9 °F18.0 °F92 %30.22 in0.2 miWest (270°)5.8 mphFogLight Freezing Fog
7:06 AM21.0 °F19.0 °F92 %30.12 in0.5 miSouth (190°)5.8 mphFogLight Freezing Fog
7:32 AM21.2 °F19.4 °F93 %30.11 in1.0 miSSE (150°)10.4 mphMostly Cloudy
7:45 AM21.0 °F19.0 °F92 %30.11 in2.0 miSSE (150°)8.1 mphMostly Cloudy
7:53 AM21.0 °F19.0 °F92 %30.21 in2.0 miSSE (150°)10.4 mphMostly Cloudy
7:57 AM21.0 °F19.0 °F92 %30.11 in5.0 miSSE (160°)9.2 mphMostly Cloudy
8:53 AM24.1 °F19.9 °F84 %30.21 in6.0 miNNE (20°)10.4 mphMostly Cloudy
9:31 AM21.0 °F18.0 °F88 %30.12 in2.0 miNNW (340°)11.5 mphMostly Cloudy
9:44 AM21.9 °F19.0 °F89 %30.12 in0.2 miNNW (340°)8.1 mphMostly Cloudy
9:53 AM21.9 °F19.0 °F89 %30.23 in0.2 miNorth (350°)8.1 mphMostly Cloudy
10:00 AM21.9 °F19.9 °F92 %30.12 in0.2 miNNW (340°)3.5 mphMostly Cloudy
10:16 AM24.1 °F21.9 °F91 %30.12 in0.2 miNorth (10°)4.6 mphMostly Cloudy
10:53 AM27.0 °F25.0 °F92 %30.20 in1.5 miCalmMostly Cloudy
11:22 AM27.0 °F25.0 °F92 %30.10 in3.0 miCalmMostly Cloudy
11:53 AM28.0 °F24.1 °F85 %30.16 in3.0 miCalmMostly Cloudy
12:53 PM28.0 °F25.0 °F88 %30.13 in3.0 miNorth (350°)9.2 mphMostly Cloudy
1:40 PM30.0 °F26.1 °F85 %30.03 in2.5 miNNW (340°)6.9 mphMostly Cloudy
1:53 PM30.9 °F26.1 °F82 %30.09 in2.5 miNNW (330°)6.9 mphHaze
2:38 PM30.0 °F25.0 °F82 %29.99 in3.0 miWNW (290°)5.8 mphHaze
2:53 PM30.9 °F26.1 °F82 %30.05 in3.0 miWNW (290°)4.6 mphHaze
3:53 PM32.0 °F26.1 °F79 %30.04 in3.0 miCalmHaze
4:53 PM30.0 °F25.0 °F82 %30.05 in3.0 miWNW (300°)9.2 mphHaze
5:53 PM30.0 °F26.1 °F85 %30.06 in3.0 miWNW (300°)5.8 mphMostly Cloudy
6:53 PM28.9 °F26.1 °F89 %30.04 in3.0 miNW (310°)3.5 mphMostly Cloudy
7:53 PM27.0 °F25.0 °F92 %30.03 in3.0 miCalmScattered Clouds
8:53 PM27.0 °F25.0 °F92 %30.02 in3.0 miNorth (10°)8.1 mphScattered Clouds
9:09 PM24.1 °F21.9 °F91 %29.95 in3.0 miNorth (360°)6.9 mphMostly Cloudy
9:31 PM24.1 °F23.0 °F96 %29.95 in2.0 miNorth (350°)9.2 mphMostly Cloudy
9:53 PM25.0 °F24.1 °F96 %30.02 in2.0 miNorth (350°)6.9 mphMostly Cloudy
10:07 PM25.0 °F24.1 °F96 %29.94 in2.0 miNNW (330°)3.5 mphScattered Clouds
10:53 PM25.0 °F23.0 °F92 %30.01 in2.0 miWNW (300°)3.5 mphMostly Cloudy
11:48 PM26.6 °F24.8 °F93 %29.94 in1.0 miNW (310°)5.8 mphMostly Cloudy
11:53 PM26.1 °F24.1 °F92 %30.00 in1.0 miNW (310°)4.6 mphMostly Cloudy
Hourly data recorded from KSLC, located miles away from Becks, Utah







STORIES FROM OUR PARTNERS